Weather History for KCBM - January, 2013

Change the Weather History Date:

Friday, January 18, 2013

  Actual Average Record
Temperature  
Mean Temperature 40 °F -  
Max Temperature 53 °F 51 °F 64 °F (2000)
Min Temperature 28 °F 32 °F 16 °F (2014)
Degree Days  
Heating Degree Days 24    
Moisture  
Dew Point 31 °F    
Average Humidity 78    
Maximum Humidity 96    
Minimum Humidity 41    
Precipitation  
Precipitation 0.00 in - - ()
Sea Level Pressure  
Sea Level Pressure 30.49 in    
Wind  
Wind Speed 4 mph (North)    
Max Wind Speed 10 mph    
Max Gust Speed -    
Visibility 10 miles    
Events      
Averages and records for this station are not official NWS values.
T = Trace of Precipitation, MM = Missing Value Source: NWS Daily Summary

Daily Weather History Graph

Daily Weather History Graph

Search for Another Location

Airport or City:

Trip Planner

Search our weather history database for the weather conditions in past years. The results will help you decide how hot, cold, wet, or windy it might be!

Date:

Astronomy

Jan. 18, 2013 Rise Set
Actual Time 6:57 AM CST 5:11 PM CST
Civil Twilight 6:30 AM CST 5:38 PM CST
Nautical Twilight 6:00 AM CST 6:08 PM CST
Astronomical Twilight 5:30 AM CST 6:38 PM CST
Moon 10:59 AM CST (1/18) No Moon Set
Length of Visible Light 11h 08m
Length of Day
10h 14m
Waxing Crescent, 47% of the Moon is Illuminated
Jan 18
Waxing Crescent
Jan 18
First Quarter
Jan 26
Full
Feb 3
Last Quarter
Feb 10
New

Hourly Weather History & Observations

Time (CST) Temp. Windchill Dew Point Humidity Pressure Visibility Wind Dir Wind Speed Gust Speed Precip Events Conditions
12:55 AM 35.4 °F 27.8 °F 31.8 °F 87% 30.46 in 10.0 mi North 10.4 mph - N/A   Clear
1:55 AM 34.3 °F 27.0 °F 31.1 °F 88% 30.48 in 10.0 mi North 9.2 mph - N/A   Clear
2:55 AM 33.3 °F 26.4 °F 30.6 °F 90% 30.48 in 10.0 mi North 8.1 mph - N/A   Clear
3:55 AM 32.4 °F 26.9 °F 29.8 °F 90% 30.50 in 10.0 mi North 5.8 mph - N/A   Clear
4:55 AM 30.9 °F 25.2 °F 28.6 °F 91% 30.52 in 10.0 mi North 5.8 mph - N/A   Clear
5:55 AM 28.4 °F 23.3 °F 26.4 °F 92% 30.53 in 10.0 mi NW 4.6 mph - N/A   Clear
6:55 AM 28.8 °F 25.0 °F 27.3 °F 94% 30.55 in 10.0 mi NW 3.5 mph - N/A   Clear
7:55 AM 31.5 °F - 29.7 °F 93% 30.58 in 9.0 mi Calm Calm - N/A   Clear
8:55 AM 35.2 °F 32.4 °F 31.1 °F 85% 30.59 in 10.0 mi NNE 3.5 mph - N/A   Clear
9:55 AM 39.7 °F 37.6 °F 32.7 °F 76% 30.60 in 10.0 mi East 3.5 mph - N/A   Clear
10:55 AM 45.1 °F - 34.2 °F 65% 30.58 in 10.0 mi Calm Calm - N/A   Clear
11:55 AM 48.2 °F - 34.5 °F 59% 30.54 in 10.0 mi Calm Calm - N/A   Clear
12:55 PM 50.4 °F - 32.7 °F 51% 30.51 in 10.0 mi Calm Calm - N/A   Clear
1:55 PM 52.3 °F - 32.4 °F 47% 30.48 in 10.0 mi Calm Calm - N/A   Clear
2:55 PM 53.1 °F - 30.2 °F 42% 30.47 in 10.0 mi Calm Calm - N/A   Clear
3:55 PM 53.6 °F - 30.4 °F 41% 30.46 in 10.0 mi Calm Calm - N/A   Clear
4:55 PM 52.0 °F - 31.5 °F 46% 30.45 in 10.0 mi Calm Calm - N/A   Clear
5:55 PM 44.1 °F - 35.1 °F 71% 30.45 in 10.0 mi Calm Calm - N/A   Clear
6:55 PM 38.7 °F - 35.8 °F 89% 30.45 in 10.0 mi Calm Calm - N/A   Clear
7:55 PM 36.1 °F - 33.6 °F 91% 30.45 in 10.0 mi Calm Calm - N/A   Clear
8:55 PM 34.7 °F - 33.4 °F 95% 30.45 in 10.0 mi Calm Calm - N/A   Clear
9:55 PM 33.6 °F - 32.7 °F 96% 30.45 in 10.0 mi Calm Calm - N/A   Clear
10:55 PM 30.7 °F - 29.7 °F 96% 30.42 in 10.0 mi Calm Calm - N/A   Clear
11:55 PM 29.8 °F - 28.9 °F 96% 30.42 in 10.0 mi Calm Calm - N/A   Clear